[[{"header":{"parameterUnit":"m.s-1","parameterCategory":2,"la1":30.2991,"la2":30.254,"lo1":-89.0895,"lo2":-89.0444,"dy":0.0017,"dx":0.0017,"nx":28,"ny":28,"refTime":"2024-07-27T09:00:00:Z","depth":"0","parameterNumber":2,"parameterNumberName":"U-component_of_CURRENTS"},"data":[0,0,0,0,0,0,0,0,0,0,0,0,0,0,0,0,0,0,0,0,0,0,0,0,0,0,0,0,0,0,0,0,0,0,0,0,0,0,0,0,0,0,0,0,0,0,0,0,0,0,0,0,0,0,0,0,0,0,0.204,0.2041,0,0.209,0.209,0.209,0.2106,0.2106,0.2106,0.2106,0.211,0.211,0.211,0,0,0,0,0,0,0,0,0,0,0,0,0,0.2116,0.2113,0.204,0.2041,0.2042,0.2089,0.209,0.2091,0.2106,0.2106,0.2106,0.2106,0.2109,0.211,0.211,0,0,0,0,0,0,0,0,0,0,0,0,0,0.2114,0.2112,0.204,0.2056,0.2058,0.2089,0.209,0.2091,0.2106,0.2106,0.2106,0.2106,0.2109,0.211,0.211,0.2114,0,0,0.2111,0.2111,0,0,0,0,0,0,0,0,0.2114,0.2111,0.2053,0.2055,0.2058,0.2093,0.2118,0.2097,0.2106,0.2086,0.2106,0.2106,0.2101,0.2102,0.211,0.2115,0.2115,0.2111,0.2111,0.2111,0.2111,0,0,0,0,0,0,0,0.2114,0.211,0.2058,0.2054,0.2057,0.2115,0.2113,0.2115,0.2092,0.2088,0.209,0.2098,0.2101,0.211,0.211,0.2115,0.2111,0.2111,0.2111,0.2111,0.2167,0.2168,0,0,0,0,0,0,0.2102,0.2109,0.2057,0.206,0.2088,0.2113,0.2111,0.208,0.2093,0.2095,0.2098,0.2098,0.2109,0.211,0.211,0.2137,0.2111,0.2111,0.2112,0.2166,0.2167,0.2169,0,0,0,0,0,0,0.2103,0.2095,0.2055,0.209,0.2089,0.2111,0.2078,0.2082,0.2094,0.2101,0.2102,0.2107,0.2109,0.211,0.2125,0.2136,0.2112,0.2112,0.2164,0.2166,0.2168,0.2177,0,0,0,0,0,0,0.2104,0.2094,0.2071,0.2087,0.2086,0.2077,0.2078,0.2083,0.21,0.2101,0.2109,0.2109,0.2109,0.2124,0.2125,0.2136,0.2112,0.2163,0.2165,0.2168,0.2175,0.2179,0.2182,0,0,0,0,0,0.2106,0.208,0.2069,0.2064,0.2051,0.2078,0.2083,0.2099,0.2101,0.2109,0.2119,0.2109,0.2141,0.2125,0.2126,0.2137,0.2161,0.2164,0.2167,0.2173,0.2178,0.2182,0,0,0,0,0,0,0.2134,0.208,0.2068,0.2034,0.2055,0.2081,0.2092,0.2102,0.2118,0.2117,0.212,0.2122,0.214,0.2143,0.2126,0.2165,0.2152,0.2155,0.2156,0.2161,0.2164,0.2191,0.2112,0,0,0,0,0,0.2119,0.2064,0.2062,0.2044,0.2047,0.2069,0.2082,0.2094,0.2111,0.2118,0.2124,0.2136,0.2153,0.2159,0.2169,0.2186,0.2227,0.2198,0.2202,0.2205,0.2229,0.2313,0.2326,0.2179,0.2179,0.2178,0,0,0.2137,0.2095,0.2073,0.2044,0.2058,0.2075,0.2076,0.2098,0.2119,0.2115,0.2138,0.2144,0.2161,0.2182,0.2191,0.2185,0.2266,0.2208,0.221,0.2234,0.2317,0.2332,0.2345,0.2181,0.218,0.218,0,0,0.2159,0.2098,0.2073,0.2074,0.2077,0.2086,0.2092,0.2112,0.2124,0.2146,0.2154,0.2179,0.2187,0.2215,0.2228,0.2263,0.2281,0.2254,0.2293,0.2372,0.2385,0.2398,0.2455,0.2472,0.2257,0.2257,0.2257,0,0.2199,0.2139,0.2088,0.208,0.209,0.209,0.2113,0.2125,0.2152,0.2169,0.2155,0.2207,0.2214,0.2265,0.2279,0.2272,0.2312,0.2267,0.2378,0.2391,0.2403,0.2459,0.2478,0.2258,0.2257,0.2257,0.2257,0,0.221,0.217,0.2167,0.213,0.2137,0.2156,0.2161,0.2173,0.2178,0.2197,0.2239,0.2255,0.2292,0.2294,0.2296,0.238,0.2378,0.237,0.2365,0.2418,0.2474,0.2493,0.2259,0.2258,0.2258,0.2258,0,0,0.2308,0.2193,0.2198,0.2178,0.2161,0.2175,0.2195,0.2225,0.225,0.2266,0.2312,0.2348,0.2355,0.2374,0.2378,0.2447,0.2557,0.2446,0.245,0.2501,0.2726,0.2627,0.2639,0.2566,0.2569,0.2572,0.2725,0,0.2355,0.2316,0.2255,0.2264,0.2257,0.2238,0.2259,0.228,0.2293,0.2328,0.2358,0.2395,0.2384,0.24,0.2469,0.2529,0.2612,0.2516,0.2671,0.2676,0.2579,0.266,0.2497,0.2611,0.2744,0.2747,0.275,0,0.2407,0.2359,0.2352,0.2296,0.2299,0.231,0.2333,0.2347,0.2383,0.2395,0.2434,0.2446,0.253,0.2514,0.2673,0.261,0.2685,0.2736,0.2743,0.2668,0.2614,0.2584,0.2642,0.2532,0.278,0.2777,0.2775,0,0.2494,0.2437,0.2419,0.2406,0.2356,0.2365,0.2357,0.238,0.2394,0.244,0.2461,0.2539,0.2582,0.269,0.2759,0.2738,0.2931,0.2914,0.2906,0.2899,0.2802,0.2779,0.2772,0.3072,0.3072,0.3071,0.3071,0,0.2554,0.2547,0.2451,0.2447,0.2447,0.2408,0.2431,0.2433,0.2452,0.2474,0.2499,0.2538,0.2635,0.2722,0.28,0.2895,0.2969,0.2943,0.2946,0.2796,0.2771,0.2702,0.2656,0.3077,0.3076,0.3075,0.3074,0,0.2633,0.2576,0.2548,0.2489,0.2476,0.2478,0.2445,0.2456,0.2476,0.2506,0.2521,0.2576,0.2672,0.2752,0.2919,0.2936,0.294,0.3065,0.2859,0.2834,0.2691,0.2651,0.2615,0.2549,0.3095,0.3093,0.3092,0,0.2644,0.2636,0.2575,0.2553,0.2519,0.2502,0.2489,0.2478,0.248,0.2522,0.254,0.2625,0.2666,0.2831,0.2876,0.2984,0.2906,0.2895,0.2833,0.2682,0.2642,0.2546,0.2487,0.2715,0.2711,0.2708,0.2705,0,0.2658,0.2647,0.2612,0.2568,0.2543,0.2513,0.2488,0.2495,0.2486,0.2512,0.2547,0.2584,0.2685,0.2681,0.2769,0.2818,0.2693,0.2828,0.2746,0.2411,0.2239,0.2173,0.2604,0.2675,0.2678,0.268,0.2682,0.2683,0.2654,0.2634,0.2583,0.2545,0.2522,0.2493,0.2454,0.2444,0.2439,0.2422,0.2508,0.2513,0.2492,0.2576,0.2605,0.2474,0.2531,0.2395,0.2385,0.2322,0.2166,0.251,0.2524,0.2526,0.2528,0.2529,0.2531,0,0.2589,0.2571,0.2545,0.2482,0.2442,0.2447,0.2415,0.2358,0.2319,0.2356,0.2365,0.231,0.2242,0.2225,0.2108,0.203,0.1981,0.1961,0.18,0.1789,0.2164,0.205,0.1869,0.1869,0.1869,0.1869,0.1869,0.187,0.2543,0.2492,0.248,0.239,0.2358,0.2268,0.2235,0.2183,0.2176,0.2097,0.2055,0.2058,0.1958,0.1802,0.1644,0.1621,0.1514,0.1423,0.1481,0.1727,0.1766,0.1803,0.1684,0.143,0.143,0.1008,0.1005,0.1002]},{"header":{"parameterUnit":"m.s-1","parameterCategory":2,"la1":30.2991,"la2":30.254,"lo1":-89.0895,"lo2":-89.0444,"dy":0.0017,"dx":0.0017,"nx":28,"ny":28,"refTime":"2024-07-27T09:00:00:Z","depth":"0","parameterNumber":3,"parameterNumberName":"V-component_of_CURRENTS"},"data":[0,0,0,0,0,0,0,0,0,0,0,0,0,0,0,0,0,0,0,0,0,0,0,0,0,0,0,0,0,0,0,0,0,0,0,0,0,0,0,0,0,0,0,0,0,0,0,0,0,0,0,0,0,0,0,0,0,0,-0.0601,-0.0602,0,-0.0734,-0.0735,-0.0737,-0.0817,-0.0817,-0.0817,-0.0817,-0.0977,-0.0981,-0.0986,0,0,0,0,0,0,0,0,0,0,0,0,0,-0.052,-0.0521,-0.0601,-0.0602,-0.0603,-0.0733,-0.0735,-0.0738,-0.0817,-0.0817,-0.0817,-0.0817,-0.0976,-0.0981,-0.0986,0,0,0,0,0,0,0,0,0,0,0,0,0,-0.0598,-0.0521,-0.0601,-0.0655,-0.0661,-0.0733,-0.0736,-0.0738,-0.0817,-0.0817,-0.0817,-0.0817,-0.0974,-0.098,-0.0987,-0.1028,0,0,-0.1007,-0.1009,0,0,0,0,0,0,0,0,-0.0594,-0.0602,-0.0646,-0.0651,-0.0658,-0.0755,-0.0766,-0.0835,-0.0817,-0.0763,-0.0817,-0.0817,-0.0902,-0.0915,-0.0946,-0.1036,-0.1043,-0.1007,-0.1011,-0.1014,-0.1016,0,0,0,0,0,0,0,-0.0588,-0.0597,-0.0658,-0.0647,-0.0654,-0.0708,-0.0719,-0.078,-0.0836,-0.0768,-0.0772,-0.078,-0.0906,-0.094,-0.095,-0.1045,-0.1007,-0.1013,-0.1017,-0.1019,-0.1125,-0.1124,0,0,0,0,0,0,-0.0557,-0.0591,-0.0654,-0.0662,-0.062,-0.0709,-0.0721,-0.0728,-0.0835,-0.0849,-0.078,-0.0783,-0.0929,-0.0943,-0.0956,-0.0961,-0.1014,-0.102,-0.1024,-0.1126,-0.1125,-0.1124,0,0,0,0,0,0,-0.0554,-0.0561,-0.0648,-0.0626,-0.064,-0.0709,-0.0717,-0.073,-0.0757,-0.0842,-0.0859,-0.0791,-0.0929,-0.0947,-0.0999,-0.097,-0.1023,-0.1029,-0.1128,-0.1126,-0.1125,-0.1003,0,0,0,0,0,0,-0.0552,-0.0559,-0.056,-0.0623,-0.064,-0.068,-0.0717,-0.0733,-0.076,-0.0765,-0.0858,-0.0873,-0.093,-0.0989,-0.1005,-0.0979,-0.1034,-0.1129,-0.1127,-0.1125,-0.1008,-0.0997,-0.0988,0,0,0,0,0,-0.0548,-0.0547,-0.0559,-0.0566,-0.0636,-0.0679,-0.0693,-0.0745,-0.076,-0.077,-0.0827,-0.087,-0.0987,-0.0994,-0.1013,-0.0988,-0.113,-0.1128,-0.1125,-0.1013,-0.1,-0.0988,0,0,0,0,0,0,-0.0509,-0.0557,-0.0571,-0.0582,-0.0619,-0.069,-0.0705,-0.0736,-0.0791,-0.0794,-0.0872,-0.0892,-0.0923,-0.0975,-0.098,-0.1011,-0.106,-0.1061,-0.0967,-0.0956,-0.0946,-0.0903,-0.1039,0,0,0,0,0,-0.0497,-0.0513,-0.0558,-0.0568,-0.058,-0.0639,-0.0663,-0.0693,-0.0747,-0.0771,-0.0833,-0.089,-0.093,-0.0957,-0.1011,-0.1039,-0.1014,-0.103,-0.102,-0.1011,-0.0989,-0.0918,-0.0898,-0.1116,-0.1116,-0.1116,0,0,-0.0484,-0.0512,-0.0521,-0.0561,-0.0595,-0.0604,-0.0655,-0.0681,-0.0686,-0.078,-0.0812,-0.0865,-0.0931,-0.0956,-0.0973,-0.0995,-0.0932,-0.1008,-0.1,-0.0982,-0.0913,-0.0891,-0.0872,-0.1115,-0.1115,-0.1115,0,0,-0.0462,-0.0486,-0.0488,-0.0511,-0.0547,-0.058,-0.0577,-0.0637,-0.066,-0.0698,-0.0751,-0.0775,-0.0867,-0.0887,-0.0912,-0.0878,-0.0883,-0.0902,-0.0816,-0.0747,-0.0728,-0.071,-0.0623,-0.0599,-0.0894,-0.0893,-0.0893,0,-0.0434,-0.0444,-0.0495,-0.0495,-0.0496,-0.0556,-0.054,-0.0578,-0.0647,-0.0644,-0.069,-0.0756,-0.0822,-0.081,-0.0805,-0.0851,-0.0808,-0.0857,-0.0729,-0.0712,-0.0696,-0.0611,-0.0586,-0.0887,-0.0888,-0.0888,-0.0889,0,-0.0415,-0.0413,-0.0413,-0.0427,-0.0439,-0.0437,-0.0476,-0.049,-0.0522,-0.055,-0.0555,-0.0633,-0.0657,-0.0685,-0.0746,-0.0668,-0.0671,-0.0722,-0.075,-0.0665,-0.0583,-0.0559,-0.0878,-0.0881,-0.0882,-0.0884,0,0,-0.0351,-0.0388,-0.038,-0.0364,-0.0394,-0.0393,-0.039,-0.0389,-0.0358,-0.0424,-0.0374,-0.0453,-0.0476,-0.0504,-0.0564,-0.0525,-0.0387,-0.0573,-0.0573,-0.0467,-0.0203,-0.0231,-0.0208,-0.041,-0.0406,-0.0403,-0.0179,0,-0.0304,-0.0283,-0.0312,-0.0269,-0.0254,-0.0283,-0.0266,-0.0272,-0.0291,-0.0268,-0.0311,-0.0307,-0.0412,-0.0408,-0.0381,-0.0395,-0.0322,-0.0441,-0.0318,-0.0314,-0.0333,-0.0181,-0.0206,-0.0012,-0.0156,-0.0152,-0.0149,0,-0.026,-0.025,-0.0206,-0.0172,-0.0161,-0.014,-0.009,-0.0083,-0.0071,-0.008,-0.0073,-0.0117,-0.0082,-0.0183,-0.0103,-0.0171,-0.0163,-0.0172,-0.0164,-0.0216,-0.0297,-0.0128,0.0037,-0.0061,-0.0112,-0.0115,-0.0118,0,-0.0191,-0.0161,-0.0117,-0.0111,-0.0094,-0.0054,-0.0032,-0.0016,0.0013,0.0055,0.0089,0.0105,0.0131,0.0144,0.0087,0.0023,0.0186,0.0099,0.0099,0.0098,0.0088,0.0078,0.0188,0.0206,0.0205,0.0204,0.0204,0,-0.013,-0.0089,-0.0077,-0.0053,0.0029,0.0026,0.0116,0.0129,0.0178,0.024,0.0202,0.026,0.0214,0.0259,0.0207,0.0243,0.0299,0.0171,0.0171,0.0128,0.012,0.0036,-0.0035,0.0213,0.0211,0.0209,0.0208,0,-0.0078,-0.0076,-0.002,0.0028,0.0052,0.0114,0.0189,0.0248,0.029,0.0378,0.0402,0.043,0.0499,0.0454,0.0496,0.0414,0.0397,0.0427,0.0383,0.0372,0.0247,0.0184,0.034,0.0304,0.0504,0.0505,0.0506,0,-0.0058,-0.0027,0.0038,0.0078,0.0101,0.0185,0.0238,0.0292,0.0349,0.0472,0.0524,0.0619,0.0673,0.0733,0.0635,0.0624,0.0493,0.0557,0.0412,0.0295,0.0225,0.0186,0.014,0.0471,0.0471,0.0472,0.0472,0,-0.0007,0.0016,0.006,0.0131,0.0196,0.0269,0.0352,0.0413,0.0491,0.0584,0.0713,0.0783,0.0833,0.0818,0.0767,0.07,0.0482,0.0562,0.0468,0.0254,0.0197,0.0142,0.0271,0.0475,0.0474,0.0474,0.0474,0.0474,0.0037,0.0077,0.0128,0.0196,0.0262,0.034,0.0408,0.0501,0.0619,0.0766,0.0835,0.098,0.0921,0.0858,0.0754,0.053,0.054,0.0425,0.0383,0.0373,0.0265,0.0405,0.0561,0.0562,0.0562,0.0562,0.0562,0,0.0086,0.0125,0.0189,0.0269,0.0333,0.0359,0.0471,0.0544,0.0682,0.086,0.0989,0.1086,0.0968,0.0819,0.055,0.0377,0.0287,0.027,0.02,0.0177,0.0342,0.0256,0.0319,0.0319,0.0319,0.0319,0.0319,0.0319,0.012,0.0182,0.0205,0.0307,0.036,0.0449,0.0507,0.0624,0.0763,0.0993,0.1148,0.1256,0.115,0.0644,0.0283,0.0182,0.0046,0.004,-0.0008,0.0051,0.0061,0.007,-0.0026,-0.0024,-0.0024,-0.0173,-0.0175,-0.0176]}],[{"header":{"parameterUnit":"m.s-1","parameterCategory":2,"la1":30.2991,"la2":30.254,"lo1":-89.0895,"lo2":-89.0444,"dy":0.0017,"dx":0.0017,"nx":28,"ny":28,"refTime":"2024-07-27T09:00:00:Z","depth":"2","parameterNumber":2,"parameterNumberName":"U-component_of_CURRENTS"},"data":[0,0,0,0,0,0,0,0,0,0,0,0,0,0,0,0,0,0,0,0,0,0,0,0,0,0,0,0,0,0,0,0,0,0,0,0,0,0,0,0,0,0,0,0,0,0,0,0,0,0,0,0,0,0,0,0,0,0,0.1887,0.1887,0,0.1884,0.1884,0.1884,0.1855,0.1854,0.1854,0.1853,0.1831,0.1831,0.1831,0,0,0,0,0,0,0,0,0,0,0,0,0,0.1876,0.1876,0.1887,0.1887,0.1887,0.1884,0.1884,0.1884,0.1855,0.1854,0.1854,0.1853,0.1831,0.1831,0.1831,0,0,0,0,0,0,0,0,0,0,0,0,0,0.1876,0.1876,0.1887,0.1874,0.1872,0.1884,0.1884,0.1884,0.1855,0.1854,0.1853,0.1853,0.1831,0.1831,0.1831,0.1847,0,0,0.1831,0.1831,0,0,0,0,0,0,0,0,0.1876,0.1876,0.1875,0.1874,0.1873,0.187,0.1872,0.1871,0.1855,0.186,0.1853,0.1852,0.1844,0.1843,0.1842,0.1846,0.1845,0.1831,0.1831,0.1831,0.1831,0,0,0,0,0,0,0,0.1876,0.1876,0.1884,0.1876,0.1874,0.1871,0.187,0.1872,0.1855,0.1859,0.1858,0.186,0.1843,0.1842,0.1841,0.1845,0.1831,0.1831,0.183,0.183,0.189,0.1892,0,0,0,0,0,0,0.1881,0.1877,0.1884,0.1884,0.1875,0.1872,0.1871,0.1871,0.1856,0.1853,0.1861,0.1859,0.1843,0.1842,0.1841,0.1875,0.1831,0.183,0.183,0.1888,0.189,0.1892,0,0,0,0,0,0,0.188,0.1881,0.1884,0.1882,0.1882,0.1873,0.1874,0.1871,0.1872,0.1857,0.1854,0.1865,0.1842,0.1841,0.1852,0.1873,0.183,0.183,0.1886,0.1889,0.1891,0.1934,0,0,0,0,0,0,0.188,0.1881,0.1887,0.1882,0.1882,0.1895,0.1875,0.1872,0.1876,0.1873,0.186,0.1856,0.1841,0.1852,0.1852,0.1872,0.183,0.1884,0.1888,0.189,0.1931,0.1938,0.1944,0,0,0,0,0,0.188,0.1885,0.1887,0.1889,0.1889,0.1895,0.1895,0.1885,0.1877,0.1882,0.1878,0.1857,0.1872,0.1854,0.1853,0.1874,0.1883,0.1887,0.189,0.1928,0.1936,0.1944,0,0,0,0,0,0,0.1852,0.1883,0.1885,0.189,0.1897,0.1891,0.1898,0.1892,0.1893,0.1892,0.1874,0.1871,0.1887,0.1882,0.1862,0.1903,0.1876,0.188,0.1905,0.1913,0.1919,0.1932,0.183,0,0,0,0,0,0.1859,0.1888,0.1896,0.1899,0.1909,0.1908,0.1911,0.1906,0.1905,0.1904,0.1894,0.1895,0.1904,0.1908,0.1908,0.1932,0.195,0.1948,0.1955,0.196,0.1973,0.2041,0.2055,0.1904,0.1904,0.1904,0,0,0.1845,0.1868,0.1879,0.19,0.1906,0.1919,0.1907,0.1916,0.1923,0.1903,0.1911,0.1913,0.1915,0.1936,0.1945,0.1934,0.201,0.1965,0.1969,0.1979,0.2046,0.2061,0.2074,0.1907,0.1906,0.1906,0,0,0.1838,0.1859,0.1885,0.1902,0.1926,0.193,0.1936,0.1941,0.1942,0.1957,0.1948,0.1972,0.1971,0.1987,0.1993,0.2043,0.2038,0.2038,0.2085,0.2151,0.2164,0.2176,0.2202,0.2216,0.2047,0.2047,0.2047,0,0.1814,0.1855,0.1886,0.1913,0.1928,0.1937,0.1953,0.196,0.1964,0.1978,0.1964,0.2001,0.2,0.2046,0.2063,0.2058,0.2081,0.205,0.216,0.2172,0.2183,0.2207,0.2222,0.2049,0.2049,0.2049,0.2049,0,0.1832,0.1864,0.1879,0.1926,0.1943,0.1961,0.198,0.1996,0.2003,0.2013,0.2054,0.2066,0.2092,0.2099,0.2095,0.2175,0.216,0.2155,0.2138,0.2201,0.2222,0.2236,0.2053,0.2052,0.2051,0.2051,0,0,0.1779,0.1873,0.1879,0.1913,0.1958,0.197,0.1999,0.2034,0.2055,0.2078,0.2112,0.2152,0.2167,0.2179,0.2185,0.2246,0.2339,0.224,0.2242,0.2262,0.2465,0.2229,0.2222,0.2358,0.2361,0.2364,0.2442,0,0.1781,0.1839,0.1885,0.193,0.1965,0.1998,0.2024,0.2057,0.208,0.2113,0.2159,0.2188,0.2194,0.2211,0.2279,0.2314,0.2382,0.2317,0.2405,0.2407,0.2187,0.2233,0.2078,0.2115,0.2456,0.2458,0.246,0,0.1794,0.1838,0.1886,0.1963,0.1977,0.2,0.2056,0.208,0.2136,0.2156,0.2211,0.2229,0.2312,0.2308,0.2435,0.2393,0.2445,0.2478,0.2482,0.2258,0.2197,0.2111,0.2128,0.2484,0.2482,0.248,0.2478,0,0.1767,0.1843,0.1886,0.191,0.1985,0.2013,0.2046,0.2098,0.2121,0.2187,0.2207,0.2297,0.2335,0.2431,0.2469,0.2478,0.2587,0.2606,0.245,0.2434,0.2314,0.2279,0.2728,0.2728,0.2727,0.2727,0.2727,0,0.1761,0.1798,0.1883,0.1906,0.1953,0.2009,0.2053,0.209,0.2145,0.2167,0.2233,0.2249,0.2375,0.2425,0.2489,0.2471,0.2607,0.246,0.2442,0.2317,0.2283,0.2614,0.26,0.273,0.2729,0.2729,0.2728,0,0.1718,0.1779,0.1838,0.1921,0.1947,0.1977,0.2047,0.2069,0.2129,0.2158,0.2179,0.2242,0.2278,0.2354,0.2477,0.2453,0.2486,0.2457,0.2262,0.2215,0.2299,0.2286,0.232,0.2312,0.2306,0.23,0.2296,0,0.1698,0.1729,0.1827,0.1859,0.1896,0.1953,0.1981,0.2051,0.2061,0.2127,0.2122,0.2167,0.214,0.2176,0.2162,0.2186,0.2327,0.2041,0.2018,0.228,0.2261,0.2258,0.2254,0.1904,0.1897,0.1891,0.1886,0,0.1657,0.1701,0.1742,0.1804,0.1848,0.1878,0.192,0.1907,0.1969,0.199,0.197,0.1957,0.195,0.1846,0.1822,0.183,0.2009,0.1908,0.2291,0.1974,0.1878,0.1861,0.1875,0.1832,0.1838,0.1842,0.1845,0.1847,0.1626,0.1637,0.17,0.174,0.1786,0.1764,0.1745,0.1735,0.1709,0.1675,0.1744,0.1668,0.1679,0.1508,0.1474,0.1463,0.1614,0.1602,0.1627,0.1658,0.1538,0.1429,0.1278,0.128,0.1282,0.1284,0.1285,0,0.1583,0.1606,0.1633,0.1669,0.1658,0.1721,0.1683,0.1594,0.1483,0.147,0.1428,0.1244,0.1153,0.1203,0.1097,0.1068,0.1146,0.1041,0.1174,0.1224,0.127,0.1138,0.077,0.0768,0.0767,0.0766,0,0,0.1575,0.1563,0.1557,0.1525,0.1558,0.1496,0.1447,0.1299,0.1223,0.1047,0.101,0.1059,0.1116,0.091,0.0888,0.0823,0.1023,0.0782,0.1193,0.1397,0.1441,0.158,0.1428,0,0,0,0,0]},{"header":{"parameterUnit":"m.s-1","parameterCategory":2,"la1":30.2991,"la2":30.254,"lo1":-89.0895,"lo2":-89.0444,"dy":0.0017,"dx":0.0017,"nx":28,"ny":28,"refTime":"2024-07-27T09:00:00:Z","depth":"2","parameterNumber":3,"parameterNumberName":"V-component_of_CURRENTS"},"data":[0,0,0,0,0,0,0,0,0,0,0,0,0,0,0,0,0,0,0,0,0,0,0,0,0,0,0,0,0,0,0,0,0,0,0,0,0,0,0,0,0,0,0,0,0,0,0,0,0,0,0,0,0,0,0,0,0,0,0.0103,0.0103,0,0.0031,0.003,0.0028,-0.0081,-0.0083,-0.0084,-0.0085,-0.0278,-0.0282,-0.0286,0,0,0,0,0,0,0,0,0,0,0,0,0,0.0189,0.0187,0.0103,0.0103,0.0103,0.0031,0.003,0.0028,-0.0081,-0.0083,-0.0084,-0.0085,-0.0277,-0.0281,-0.0286,0,0,0,0,0,0,0,0,0,0,0,0,0,0.0131,0.0187,0.0103,0.0045,0.004,0.0032,0.003,0.0027,-0.0081,-0.0083,-0.0084,-0.0086,-0.0275,-0.0281,-0.0287,-0.0287,0,0,-0.0305,-0.0308,0,0,0,0,0,0,0,0,0.0134,0.0126,0.0054,0.0049,0.0044,-0.0011,-0.001,-0.0081,-0.008,-0.0043,-0.0085,-0.0087,-0.0193,-0.0206,-0.0225,-0.0296,-0.0304,-0.0306,-0.0309,-0.0312,-0.0314,0,0,0,0,0,0,0,0.0138,0.0129,0.0066,0.0054,0.0048,0.0039,0.0027,-0.0024,-0.0116,-0.0047,-0.0053,-0.0047,-0.0199,-0.0219,-0.0231,-0.0307,-0.0305,-0.0311,-0.0314,-0.0317,-0.0459,-0.0459,0,0,0,0,0,0,0.0162,0.0133,0.0069,0.0065,0.0094,0.0039,0.0026,0.0002,-0.0113,-0.0128,-0.0046,-0.0052,-0.0208,-0.0224,-0.0238,-0.0297,-0.0312,-0.0317,-0.0321,-0.0459,-0.0459,-0.0459,0,0,0,0,0,0,0.0164,0.0156,0.0072,0.0106,0.0095,0.004,0.0014,0.0002,-0.0036,-0.0109,-0.013,-0.0072,-0.021,-0.023,-0.0302,-0.0303,-0.032,-0.0326,-0.0459,-0.0459,-0.0459,-0.0381,0,0,0,0,0,0,0.0166,0.0156,0.0131,0.0106,0.0094,0.0064,0.0016,0.0002,-0.0025,-0.0035,-0.0137,-0.0156,-0.0213,-0.0292,-0.0307,-0.0312,-0.033,-0.0458,-0.0459,-0.0459,-0.0384,-0.0379,-0.0375,0,0,0,0,0,0.0169,0.0146,0.0129,0.0121,0.0065,0.0066,0.0057,0.0008,-0.0024,-0.0035,-0.0112,-0.0154,-0.0305,-0.0297,-0.0315,-0.0321,-0.0458,-0.0459,-0.0459,-0.0386,-0.038,-0.0375,0,0,0,0,0,0,0.0178,0.0133,0.0113,0.0078,0.0075,0.005,0.0031,0.001,-0.0057,-0.0081,-0.0159,-0.0183,-0.0245,-0.0292,-0.0281,-0.0363,-0.0387,-0.0391,-0.0325,-0.0321,-0.0316,-0.0282,-0.0335,0,0,0,0,0,0.0172,0.0126,0.0117,0.0089,0.0087,0.006,0.0048,0.0025,-0.0021,-0.0053,-0.012,-0.0196,-0.0255,-0.0296,-0.0356,-0.04,-0.04,-0.0415,-0.0411,-0.0407,-0.0392,-0.0389,-0.0382,-0.0461,-0.0461,-0.0461,0,0,0.0173,0.014,0.0116,0.0087,0.007,0.0072,0.0044,0.0032,0.0021,-0.0063,-0.0125,-0.0184,-0.0264,-0.0317,-0.0349,-0.0361,-0.0382,-0.0407,-0.0403,-0.039,-0.0389,-0.0381,-0.0373,-0.0461,-0.0461,-0.0461,0,0,0.0166,0.0122,0.0091,0.009,0.0077,0.0069,0.0071,0.0046,0.0015,-0.0028,-0.0094,-0.0145,-0.0247,-0.029,-0.0328,-0.0331,-0.0357,-0.0363,-0.0317,-0.0314,-0.0307,-0.03,-0.0271,-0.0262,-0.0362,-0.0362,-0.0362,0,0.0177,0.0125,0.0093,0.0082,0.0084,0.0073,0.0077,0.0057,0.0008,-0.0007,-0.0045,-0.0158,-0.0226,-0.0269,-0.0279,-0.0318,-0.0316,-0.0328,-0.0305,-0.0299,-0.0293,-0.0265,-0.0256,-0.0358,-0.0358,-0.0359,-0.0359,0,0.0158,0.0123,0.0116,0.0086,0.0089,0.0093,0.0089,0.0074,0.0041,0.0023,-0.0026,-0.0103,-0.0164,-0.0195,-0.0247,-0.0248,-0.0256,-0.0294,-0.0308,-0.028,-0.0252,-0.0245,-0.0353,-0.0354,-0.0355,-0.0356,0,0,0.0183,0.0113,0.0113,0.01,0.0093,0.0102,0.0095,0.0096,0.0097,0.0048,0.0045,-0.0048,-0.0072,-0.0114,-0.0171,-0.0176,-0.0137,-0.0219,-0.022,-0.017,-0.0109,-0.0148,-0.0144,-0.0174,-0.0173,-0.0172,-0.0096,0,0.0187,0.0152,0.0124,0.0123,0.0117,0.0116,0.012,0.0119,0.0103,0.0097,0.005,0.0016,-0.0046,-0.0072,-0.0082,-0.0132,-0.0118,-0.0153,-0.0161,-0.016,-0.0183,-0.0137,-0.014,-0.0077,-0.0089,-0.0088,-0.0087,0,0.0191,0.0158,0.0141,0.013,0.0134,0.0139,0.0158,0.0163,0.0164,0.0151,0.0133,0.0096,0.0079,0.0023,-0.0001,-0.0022,-0.0053,-0.0081,-0.0079,-0.0136,-0.0186,-0.0114,-0.0063,-0.0075,-0.0076,-0.0077,-0.0078,0,0.0217,0.0187,0.0164,0.0162,0.0147,0.015,0.016,0.0172,0.0186,0.0193,0.0207,0.018,0.0172,0.0132,0.007,0.0036,0.006,0.0004,-0.0044,-0.0046,-0.006,-0.0066,0.001,0.001,0.001,0.001,0.001,0,0.0236,0.0229,0.0168,0.016,0.0167,0.0164,0.0191,0.0199,0.0225,0.026,0.0236,0.0273,0.0196,0.0191,0.0125,0.0076,0.0108,-0.0012,-0.0029,-0.0034,-0.0038,-0.006,-0.007,0.0013,0.0012,0.0012,0.0011,0,0.0276,0.0229,0.0204,0.0171,0.0169,0.0179,0.0208,0.0237,0.026,0.031,0.0318,0.0352,0.0357,0.0289,0.0244,0.0152,0.0102,0.0077,0.0089,0.007,-0.0013,-0.002,0.0039,0.0038,0.0038,0.0037,0.0037,0,0.0289,0.0269,0.0214,0.0205,0.0186,0.0199,0.0221,0.0246,0.0288,0.037,0.0409,0.0438,0.0487,0.0424,0.0277,0.018,0.015,0.0084,0.0001,0.0012,-0.0009,-0.0015,-0.002,0.0033,0.0032,0.0032,0.0032,0,0.032,0.0286,0.0263,0.0234,0.0231,0.0261,0.0295,0.0349,0.0402,0.0473,0.0607,0.0659,0.0576,0.0494,0.0313,0.0225,0.009,0.0071,0.0104,0.0004,0.0006,-0.0016,-0.0021,0.0029,0.0029,0.0029,0.0029,0.003,0.0343,0.0335,0.0288,0.0279,0.0277,0.0342,0.0405,0.0488,0.0607,0.0729,0.0755,0.081,0.0649,0.0435,0.0292,0.0098,0.0092,0.0001,0.0003,0.0005,-0.0032,-0.0034,-0.0022,-0.0022,-0.0022,-0.0022,-0.0022,0,0.0366,0.0354,0.0345,0.0332,0.0364,0.0352,0.0464,0.0566,0.0749,0.0811,0.0916,0.0779,0.0661,0.0473,0.0182,0.0013,-0.0002,-0.0039,-0.0021,-0.0018,-0.0015,-0.0052,-0.0047,-0.0048,-0.0048,-0.0048,0,0,0.0368,0.0374,0.0375,0.0419,0.0421,0.051,0.0598,0.0755,0.0839,0.0961,0.0947,0.0913,0.068,0.0468,0.026,0.0107,0.0079,0.0071,0.0103,0.0151,0.0157,0.0014,-0.004,0,0,0,0,0]}],[{"header":{"parameterUnit":"m.s-1","parameterCategory":2,"la1":30.2991,"la2":30.254,"lo1":-89.0895,"lo2":-89.0444,"dy":0.0017,"dx":0.0017,"nx":28,"ny":28,"refTime":"2024-07-27T09:00:00:Z","depth":"4","parameterNumber":2,"parameterNumberName":"U-component_of_CURRENTS"},"data":[0,0,0,0,0,0,0,0,0,0,0,0,0,0,0,0,0,0,0,0,0,0,0,0,0,0,0,0,0,0,0,0,0,0,0,0,0,0,0,0,0,0,0,0,0,0,0,0,0,0,0,0,0,0,0,0,0,0,-0.0024,-0.0024,0,-0.001,-0.001,-0.001,0.0015,0.0016,0.0016,0.0017,0.0091,0.0092,0.0094,0,0,0,0,0,0,0,0,0,0,0,0,0,-0.0026,-0.0026,-0.0024,-0.0024,-0.0023,-0.001,-0.001,-0.001,0.0015,0.0016,0.0016,0.0017,0.009,0.0092,0.0094,0,0,0,0,0,0,0,0,0,0,0,0,0,-0.002,-0.0026,-0.0024,-0.001,-0.0008,-0.001,-0.001,-0.001,0.0015,0.0016,0.0016,0.0017,0.009,0.0092,0.0094,0.0095,0,0,0.0101,0.0102,0,0,0,0,0,0,0,0,-0.002,-0.0019,-0.0012,-0.0011,-0.0009,0.0001,0.0016,0.0028,0.0015,0.0007,0.0017,0.0017,0.0066,0.007,0.0071,0.0098,0.0101,0.0101,0.0103,0.0104,0.0105,0,0,0,0,0,0,0,-0.002,-0.002,-0.0018,-0.0012,-0.001,-0.0003,-0.0002,0.0018,0.0034,0.0007,0.0009,0.001,0.0067,0.0068,0.0073,0.0102,0.0101,0.0103,0.0105,0.0106,0.0252,0.0255,0,0,0,0,0,0,-0.0024,-0.002,-0.0018,-0.0018,-0.0013,-0.0004,-0.0002,-0.0002,0.0032,0.0037,0.0009,0.0011,0.0064,0.007,0.0076,0.0171,0.0104,0.0106,0.0107,0.025,0.0253,0.0255,0,0,0,0,0,0,-0.0024,-0.0024,-0.0019,-0.0019,-0.0018,-0.0005,-0.0005,-0.0003,0.0008,0.0033,0.004,0.0018,0.0065,0.0072,0.0117,0.0171,0.0107,0.0109,0.0247,0.0251,0.0254,0.0304,0,0,0,0,0,0,-0.0024,-0.0024,-0.002,-0.0019,-0.0018,-0.001,-0.0006,-0.0003,0.0006,0.0009,0.0042,0.0049,0.0066,0.0113,0.0119,0.0173,0.0111,0.0244,0.0249,0.0253,0.0299,0.0309,0.0317,0,0,0,0,0,-0.0024,-0.0019,-0.002,-0.002,-0.0015,-0.001,-0.0008,0.0003,0.0006,0.0014,0.0046,0.0048,0.0148,0.0116,0.0123,0.0179,0.0241,0.0247,0.0253,0.0295,0.0307,0.0317,0,0,0,0,0,0,-0.0007,-0.0016,-0.0017,-0.0012,-0.0009,-0.0005,0.0003,0.0005,0.0032,0.0044,0.0063,0.0073,0.014,0.0148,0.0112,0.0238,0.0202,0.0209,0.0232,0.0244,0.0253,0.0258,0.0113,0,0,0,0,0,-0.0006,-0.0007,-0.0012,-0.0004,-0.0005,-0.0003,0.0002,0.0011,0.003,0.0042,0.0069,0.0113,0.0166,0.0193,0.0232,0.0284,0.0271,0.0331,0.034,0.0348,0.036,0.038,0.0391,0.0274,0.0274,0.0274,0,0,-0.0003,0.0,-0.0005,-0.0001,0.0002,0.0007,0.0003,0.0016,0.0039,0.0048,0.0097,0.0139,0.0186,0.0258,0.029,0.0273,0.0372,0.0355,0.0361,0.0369,0.0386,0.0397,0.0407,0.0278,0.0277,0.0276,0,0,0.0008,0.001,0.0008,0.0012,0.0021,0.0025,0.0029,0.004,0.0064,0.0111,0.014,0.0206,0.027,0.0322,0.0355,0.0434,0.0417,0.0462,0.0515,0.0534,0.0543,0.055,0.0529,0.0534,0.0469,0.0469,0.0469,0,0.0011,0.0015,0.0011,0.0018,0.003,0.0032,0.0042,0.0064,0.0097,0.0132,0.014,0.0272,0.0305,0.0405,0.045,0.0454,0.045,0.0464,0.0543,0.055,0.0557,0.0533,0.0539,0.0472,0.0472,0.0472,0.0471,0,0.0017,0.0026,0.003,0.0037,0.0051,0.0064,0.0086,0.0119,0.0154,0.0185,0.029,0.0348,0.0434,0.0466,0.0489,0.058,0.0553,0.0544,0.0506,0.0571,0.0542,0.0547,0.0477,0.0476,0.0475,0.0474,0,0,0.0006,0.0024,0.0029,0.0042,0.0065,0.0078,0.0127,0.0173,0.0225,0.0285,0.0358,0.0476,0.052,0.0563,0.0607,0.0637,0.0681,0.0628,0.0627,0.059,0.0702,0.0639,0.0637,0.0689,0.0691,0.0692,0.0652,0,0.0011,0.0022,0.0043,0.0073,0.0075,0.0115,0.0158,0.0212,0.0281,0.0353,0.043,0.0523,0.0553,0.062,0.0659,0.0682,0.0701,0.0691,0.0659,0.0657,0.0581,0.0644,0.0698,0.0655,0.0656,0.0657,0.0657,0,0.0005,0.0018,0.0033,0.0089,0.0098,0.0128,0.0219,0.0273,0.0371,0.0432,0.0539,0.0591,0.0684,0.0684,0.0749,0.0746,0.074,0.0736,0.0734,0.0665,0.0605,0.0584,0.0665,0.0665,0.0664,0.0663,0.0663,0,-0.0016,0.0021,0.0037,0.005,0.0102,0.0146,0.02,0.0299,0.0363,0.0499,0.055,0.066,0.0723,0.0746,0.0761,0.0767,0.0782,0.0774,0.0701,0.0693,0.0733,0.0726,0.0801,0.0801,0.0801,0.0801,0.0802,0,-0.0021,-0.0004,0.0031,0.004,0.0095,0.0146,0.0244,0.0322,0.0424,0.0502,0.0603,0.0668,0.0748,0.0765,0.0763,0.0743,0.0782,0.0721,0.0694,0.0753,0.0748,0.0734,0.0727,0.08,0.08,0.0801,0.0801,0,-0.0045,-0.0031,-0.0006,0.0051,0.0081,0.0132,0.0255,0.0321,0.0427,0.053,0.057,0.0677,0.0728,0.0749,0.0776,0.0742,0.0721,0.0694,0.0731,0.0704,0.0614,0.061,0.0622,0.062,0.0618,0.0616,0.0615,0,-0.0061,-0.0059,-0.0003,0.0025,0.0061,0.0147,0.0201,0.032,0.0388,0.0527,0.0552,0.0638,0.0703,0.0676,0.0708,0.068,0.0672,0.0633,0.0666,0.0631,0.0603,0.0602,0.0601,0.0612,0.0611,0.0611,0.0611,0,-0.0085,-0.0067,-0.0048,0.0006,0.0062,0.0132,0.0222,0.0261,0.0396,0.0471,0.0549,0.0586,0.0629,0.0658,0.0638,0.0615,0.0651,0.0614,0.0619,0.0649,0.0619,0.0593,0.0594,0.0604,0.0605,0.0606,0.0606,0,-0.0101,-0.0094,-0.0067,-0.0008,0.0045,0.0101,0.0166,0.0242,0.0315,0.0458,0.0475,0.056,0.0636,0.0621,0.0594,0.058,0.0582,0.0547,0.0555,0.0562,0.0563,0.0517,0.046,0,0,0,0,0,-0.0107,-0.0099,-0.0071,-0.002,0.0026,0.0067,0.016,0.0221,0.0331,0.0373,0.0432,0.0477,0.0508,0.0534,0.051,0.0546,0.0561,0.051,0.052,0.0569,0.0576,0.0583,0,0,0,0,0,0,-0.0112,-0.01,-0.0089,-0.005,-0.0017,0.0038,0.0096,0.0174,0.021,0.0321,0.0345,0.0413,0.0447,0.0513,0.0489,0.0493,0.048,0.055,0.0547,0.0564,0.0571,0.0577,0.0587,0,0,0,0,0]},{"header":{"parameterUnit":"m.s-1","parameterCategory":2,"la1":30.2991,"la2":30.254,"lo1":-89.0895,"lo2":-89.0444,"dy":0.0017,"dx":0.0017,"nx":28,"ny":28,"refTime":"2024-07-27T09:00:00:Z","depth":"4","parameterNumber":3,"parameterNumberName":"V-component_of_CURRENTS"},"data":[0,0,0,0,0,0,0,0,0,0,0,0,0,0,0,0,0,0,0,0,0,0,0,0,0,0,0,0,0,0,0,0,0,0,0,0,0,0,0,0,0,0,0,0,0,0,0,0,0,0,0,0,0,0,0,0,0,0,0.0565,0.0565,0,0.0574,0.0575,0.0575,0.0621,0.0622,0.0623,0.0624,0.0662,0.0662,0.0662,0,0,0,0,0,0,0,0,0,0,0,0,0,0.0551,0.0552,0.0565,0.0565,0.0565,0.0574,0.0575,0.0575,0.0621,0.0622,0.0624,0.0625,0.0662,0.0662,0.0662,0,0,0,0,0,0,0,0,0,0,0,0,0,0.0559,0.0552,0.0565,0.0589,0.0592,0.0574,0.0575,0.0575,0.0621,0.0622,0.0624,0.0625,0.0662,0.0662,0.0662,0.0631,0,0,0.0663,0.0663,0,0,0,0,0,0,0,0,0.0559,0.056,0.0586,0.0588,0.059,0.0598,0.0583,0.0595,0.062,0.061,0.0624,0.0626,0.0642,0.0644,0.0642,0.0632,0.0634,0.0663,0.0663,0.0663,0.0663,0,0,0,0,0,0,0,0.0558,0.0559,0.0569,0.0586,0.0588,0.0587,0.059,0.0586,0.0618,0.0611,0.0614,0.0614,0.0644,0.0642,0.0644,0.0635,0.0663,0.0663,0.0663,0.0663,0.0655,0.0655,0,0,0,0,0,0,0.0556,0.0559,0.0569,0.057,0.0577,0.0586,0.059,0.0594,0.0617,0.0622,0.0613,0.0616,0.0641,0.0643,0.0645,0.0666,0.0663,0.0663,0.0663,0.0655,0.0655,0.0655,0,0,0,0,0,0,0.0556,0.0557,0.0569,0.0564,0.0565,0.0585,0.0589,0.0593,0.0616,0.0618,0.0624,0.0634,0.0643,0.0645,0.0661,0.0666,0.0663,0.0663,0.0656,0.0655,0.0655,0.0671,0,0,0,0,0,0,0.0555,0.0557,0.0565,0.0564,0.0565,0.0574,0.0588,0.0592,0.0612,0.0617,0.0637,0.0641,0.0644,0.0661,0.0661,0.0666,0.0663,0.0656,0.0655,0.0655,0.0671,0.0671,0.0672,0,0,0,0,0,0.0555,0.0556,0.0565,0.0567,0.0574,0.0574,0.0575,0.0594,0.0611,0.0621,0.0637,0.0642,0.0658,0.0661,0.0661,0.0666,0.0656,0.0656,0.0655,0.0671,0.0671,0.0672,0,0,0,0,0,0,0.0558,0.0561,0.0571,0.0575,0.0582,0.0583,0.0596,0.0603,0.0621,0.0636,0.0641,0.0645,0.066,0.0657,0.0659,0.0661,0.0657,0.0656,0.0668,0.0669,0.067,0.0671,0.0663,0,0,0,0,0,0.056,0.0569,0.0567,0.0579,0.0584,0.0593,0.0598,0.0609,0.062,0.0631,0.0647,0.0655,0.0651,0.0658,0.0659,0.0659,0.0616,0.0661,0.0661,0.0662,0.0662,0.0572,0.0564,0.0653,0.0653,0.0653,0,0,0.0569,0.0571,0.0579,0.0581,0.0594,0.0599,0.0602,0.0618,0.063,0.063,0.0666,0.0662,0.0652,0.0656,0.0662,0.066,0.0617,0.0661,0.0662,0.0662,0.057,0.0561,0.0553,0.0653,0.0653,0.0653,0,0,0.058,0.0593,0.06,0.0605,0.0618,0.0618,0.0627,0.0638,0.0657,0.0677,0.0673,0.067,0.0687,0.0667,0.0659,0.0658,0.0622,0.0665,0.067,0.0583,0.0574,0.0566,0.0511,0.0497,0.0665,0.0665,0.0665,0,0.0587,0.0597,0.0603,0.0609,0.0617,0.063,0.0637,0.065,0.0669,0.0674,0.07,0.0688,0.0687,0.0655,0.0663,0.0659,0.0612,0.0671,0.0582,0.0573,0.0564,0.0509,0.0494,0.0665,0.0665,0.0665,0.0665,0,0.0595,0.0611,0.0621,0.0633,0.064,0.0653,0.0663,0.0685,0.0712,0.0711,0.0713,0.0703,0.0689,0.0686,0.0683,0.0622,0.061,0.0591,0.0579,0.0556,0.05,0.0484,0.0666,0.0666,0.0666,0.0666,0,0,0.0584,0.0616,0.0622,0.0639,0.0654,0.0661,0.0685,0.0691,0.0701,0.0721,0.071,0.0709,0.0697,0.0685,0.0664,0.0601,0.0511,0.058,0.0575,0.0523,0.0332,0.0356,0.0341,0.0468,0.0465,0.0463,0.032,0,0.0589,0.0604,0.0618,0.0649,0.0658,0.0681,0.0692,0.0702,0.0721,0.0715,0.0692,0.068,0.0696,0.0683,0.0622,0.0537,0.0469,0.0553,0.0363,0.0358,0.038,0.0323,0.0454,0.0309,0.0305,0.0302,0.03,0,0.0581,0.0595,0.0618,0.0653,0.066,0.0681,0.0703,0.0719,0.0707,0.0714,0.0695,0.0673,0.0607,0.0611,0.0459,0.0511,0.0427,0.036,0.0352,0.0358,0.0353,0.0332,0.0271,0.0273,0.0276,0.0278,0.0279,0,0.056,0.0596,0.0618,0.0631,0.0664,0.0691,0.0715,0.0721,0.0728,0.0709,0.0691,0.0625,0.0582,0.047,0.0376,0.0398,0.019,0.0194,0.0135,0.0136,0.0151,0.0161,0.0056,0.0056,0.0056,0.0057,0.0057,0,0.0549,0.0574,0.062,0.0637,0.0669,0.0692,0.0722,0.0739,0.0726,0.0714,0.0689,0.0643,0.0539,0.0428,0.0338,0.0198,0.0155,0.0122,0.0089,0.0165,0.0178,0.0141,0.0152,0.0051,0.0052,0.0053,0.0054,0,0.0533,0.0561,0.0601,0.0649,0.0666,0.07,0.0744,0.0749,0.0744,0.0722,0.0708,0.0627,0.0499,0.039,0.0198,0.0151,0.001,-0.0036,0.0067,0.0044,0.0026,0.004,-0.0121,-0.0121,-0.0122,-0.0122,-0.0123,0,0.0522,0.0536,0.061,0.0639,0.0678,0.0724,0.0738,0.0762,0.0763,0.0711,0.0681,0.0564,0.0505,0.0251,0.0148,-0.0031,-0.0045,-0.0109,-0.0043,0.0018,0.0001,0.0016,0.0031,-0.0123,-0.0124,-0.0124,-0.0124,0,0.0503,0.0543,0.0577,0.0633,0.068,0.0719,0.0752,0.0741,0.0748,0.0735,0.0639,0.0534,0.0386,0.0241,0.0105,-0.002,-0.0058,-0.0114,-0.0113,-0.0053,0.0012,-0.0,0.0015,-0.0126,-0.0125,-0.0125,-0.0125,0,0.0492,0.0515,0.0565,0.0618,0.0669,0.07,0.0725,0.071,0.0705,0.0657,0.0619,0.0482,0.0412,0.0242,0.011,0.0003,-0.0011,-0.0028,-0.0032,-0.0031,0.0059,0.0158,0.0017,0,0,0,0,0,0.0479,0.0497,0.0535,0.0597,0.0648,0.0686,0.0714,0.0726,0.0724,0.0657,0.0643,0.0513,0.0333,0.0245,0.0137,0.0108,-0.0026,-0.0019,-0.0046,-0.0135,-0.0133,-0.0039,0,0,0,0,0,0,0.0467,0.0504,0.0522,0.0567,0.06,0.0654,0.0677,0.068,0.0643,0.0627,0.0521,0.0497,0.031,0.0387,0.0134,0.0103,0.0076,-0.0098,-0.01,-0.0137,-0.0135,-0.0133,-0.0035,0,0,0,0,0]}]]